sat.trackr.live / text

‹ back to catalog

STARLINK-37044

NORAD 68247 · 2026-054R

PAYLOAD ACTIVE UNKNOWN

§ Identity

Operator
Country
US
Launch date
2026-03-17
Launch site
AFETR
Launch vehicle
Mass (kg)
RCS (m²)

Purposes: comms

External: N2YO · Heavens-Above · Gunter

§ Orbital elements

Epoch: 2026-05-25T03:42:16.596864Z

Period
92.94 min
Inclination
53.1586°
Eccentricity
0.0000889
Mean motion
15.49357185 rev/d
Perigee alt
418.0 km
Apogee alt
419.2 km
Semi-major
6,796.7 km
B*
9.8596e-4
RAAN
297.8260°
Arg perigee
114.1122°
Mean anomaly
245.9980°
Rev number
1,075

§ Raw data

STARLINK-370441 68247U 26054R   26145.15435876  .00054866  00000+0  98596-3 0  99992 68247  53.1586 297.8260 0000889 114.1122 245.9980 15.49357185 10756

JSON: /api/v1/satellites/68247 · /tle

For live sub-satellite position, see the globe view (requires WebGL).

§ Visibility from observer

Set your observer location to see the next 7 days of passes ≥ 10°. The values pass through the URL so the page stays shareable.

No JS? Fill the form by hand. The geolocation button needs JavaScript.